Tracking 19562 objects as of 25-Mar-2019
HD Live streaming from Space Station
objects crossing your sky now

SYMPHONIE 1

Track SYMPHONIE 1 now!
SYMPHONIE 1 is classified as:


NORAD ID: 7578
Int'l Code: 1974-101A
Perigee: 35,865.7 km
Apogee: 35,908.1 km
Inclination: 10.9 °
Period: 1,440.9 minutes
Semi major axis: 42257 km
RCS: 1.2872 m2 (large)
Launch date: December 19, 1974
Source: France/Germany (FGER)
Launch site: AIR FORCE EASTERN TEST RANGE (AFETR)
aabbcc
Your satellite tracking list
Your tracking list is empty




NASA's NSSDC Master Catalog

Two Line Element Set (TLE):
1  7578U 74101A   19083.68406958 -.00000034  00000-0  00000+0 0  9994
2  7578  10.8930 310.2900 0005013  13.7532 177.1212  0.99940318 91223
Source of the keplerian elements: AFSPC